Station WAHV2 - 8631044 - Wachapreague, VA Image indicating link to RSS feed of recent meteorological observations for station WAHV2


Conditions at WAHV2 as of
(6:48 pm EDT)
2248 GMT on 05/30/2024:
     

Click on the graph icon in the table below to see a time series plot of the last five days of that observation.

5-day plot - Wind Direction Wind Direction (WDIR): N ( 350 deg true )
5-day plot - Wind Speed Wind Speed (WSPD): 4.1 kts
5-day plot - Wind Gust Wind Gust (GST): 6.0 kts
5-day plot - Atmospheric Pressure Atmospheric Pressure (PRES):30.01 in
5-day plot - Air Temperature Air Temperature (ATMP): 71.8 °F
5-day plot - Water Temperature Water Temperature (WTMP): 79.0 °F
5-day plot - Wind Speed at 10 Meters Wind Speed at 10 meters (WSPD10M): 3.9 kts
5-day plot - Wind Speed at 20 Meters Wind Speed at 20 meters (WSPD20M): 3.9 kts
5-day plot -  Wind Speed, Wind Gust and Atmospheric Pressure Combined plot of Wind Speed, Gust, and Air Pressure
NOS Water Level Observation Network Water Level
Previous observations
TIME
(EDT)
5-day plot - Wind Direction
WDIR
 
5-day plot - Wind Speed
WSPD
kts
5-day plot - Wind Gust
GST
kts
5-day plot - Wave Height
WVHT
ft
5-day plot - Dominant Wave Period
DPD
sec
5-day plot - Average Wave Period
APD
sec
5-day plot - Mean Wave Direction
MWD
 
5-day plot - Atmospheric Pressure
PRES
in
5-day plot - Pressure Tendency
PTDY
in
5-day plot - Air Temperature
ATMP
°F
5-day plot - Water Temperature
WTMP
°F
5-day plot - Dew Point
DEWP
°F
5-day plot - Salinity
SAL
psu
5-day plot - Visibility
VIS
nmi
5-day plot - Tide (above MLLW)
TIDE
ft
2024-05-30 06:42 pm N 4.1 7.0----30.01- 72.1 79.0----
2024-05-30 06:36 pm NW 2.9 5.1----30.01- 72.5 78.8----
2024-05-30 06:30 pm NW 4.1 7.0----30.01- 72.0 78.8----
2024-05-30 06:24 pmNNW 5.1 8.0----30.00- 72.0 78.8----
2024-05-30 06:18 pmNNW 6.0 9.9----30.00- 71.8 79.0----
2024-05-30 06:12 pmWNW 2.9 7.0----30.00- 73.4 79.0----
2024-05-30 06:06 pm NW 4.1 7.0----30.00- 72.9 78.8----
2024-05-30 06:00 pm N 2.9 8.9------------
2024-05-30 05:54 pm NW 5.1 11.1------------
2024-05-30 05:48 pmNNW 4.1 13.0----30.00-- 78.6----
2024-05-30 05:42 pm NW 4.1 8.9----30.00-- 78.4----
2024-05-30 05:36 pmWNW 2.9 8.9----30.00-- 78.3----
2024-05-30 05:30 pmNNW 5.1 12.0----30.00- 72.3 78.3----
2024-05-30 05:24 pm NW 5.1 11.1----30.00- 71.8 78.1----
2024-05-30 05:18 pm NW 4.1 8.9----30.00- 72.9 77.9----
2024-05-30 05:12 pmNNW 4.1 8.9----30.00- 72.7 77.7----
2024-05-30 05:06 pmNNW 2.9 11.1----30.00- 72.5 77.5----
2024-05-30 05:00 pm NW 5.1 15.0----30.00+0.00 72.3 77.2----
2024-05-30 04:54 pm N 5.1 8.9----30.00- 72.1 77.0----
2024-05-30 04:48 pmNNW 6.0 8.9----30.00-- 77.0----
2024-05-30 04:42 pm NW 2.9 8.9----30.00-- 76.8----
2024-05-30 04:36 pm N 9.9 18.1----30.00-- 76.6----
2024-05-30 04:30 pm NW 4.1 13.0----30.00- 72.5 76.3----
2024-05-30 04:24 pm NW 7.0 15.9----30.00- 72.0 76.3----
2024-05-30 04:18 pmNNW 4.1 11.1----30.00- 72.5 76.1----
2024-05-30 04:12 pm N 7.0 15.0----30.00- 71.6 76.1----
2024-05-30 04:06 pm NW 5.1 12.0----30.00- 72.3 75.9----
2024-05-30 04:00 pm NW 4.1 13.0----30.00-0.01 72.7 75.7----
2024-05-30 03:54 pmWNW 2.9 8.9----30.00- 72.7 75.6----
2024-05-30 03:48 pmWNW 4.1 12.0----30.00- 72.1 75.6----
2024-05-30 03:42 pm W 8.0 15.0----30.00- 71.2 75.6----
2024-05-30 03:36 pm NW 5.1 15.9----30.00- 72.7 75.6----
2024-05-30 03:30 pm NW 2.9 14.0----30.00- 72.3 75.6----
2024-05-30 03:24 pmWNW 6.0 13.0----30.00- 72.1 75.6----
2024-05-30 03:18 pmWNW 6.0 13.0----30.00- 72.9 75.6----
2024-05-30 03:12 pm NW 4.1 12.0----30.00- 73.4 75.7----
2024-05-30 03:06 pm NW 6.0 13.0----30.00- 72.1 75.7----
2024-05-30 03:00 pmNNW 8.0 19.0----30.00+0.00 71.6 75.7----
2024-05-30 02:54 pm NW 6.0 13.0----30.00- 71.4 75.7----
2024-05-30 02:48 pm NW 2.9 11.1----30.00- 72.3 75.7----
2024-05-30 02:42 pmWNW 2.9 8.9----30.00- 72.1 75.7----
2024-05-30 02:36 pm NW 5.1 14.0----30.00- 72.0 75.7----
2024-05-30 02:30 pm NW 7.0 15.0----30.01- 70.9 75.7----
2024-05-30 02:24 pm NW 4.1 14.0----30.01- 72.0 75.7----
2024-05-30 02:18 pmWNW 6.0 14.0----30.00- 71.2 75.7----
2024-05-30 02:12 pm NW 4.1 15.0----30.00- 71.8 75.7----
2024-05-30 02:06 pm NW 5.1 14.0----30.00- 71.6 75.7----
2024-05-30 02:00 pm NW 6.0 12.0----30.01-0.01 70.7 75.7----
2024-05-30 01:54 pm NW 4.1 12.0----30.01- 71.6 75.7----
2024-05-30 01:48 pm NW 6.0 13.0----30.01-- 75.7----
2024-05-30 01:42 pm NW 2.9 9.9----30.01-- 75.7----
2024-05-30 01:36 pmWNW 5.1 14.0----30.01-- 75.7----
2024-05-30 01:30 pmNNW 5.1 12.0----30.01- 70.7 75.6----
2024-05-30 01:24 pmWNW 4.1 8.9----30.01- 71.8 75.6----
2024-05-30 01:18 pmNNW 2.9 7.0----30.01- 71.6 75.6----
2024-05-30 01:12 pmWNW 4.1 9.9----30.01- 71.6 75.6----
2024-05-30 01:06 pm NW 2.9 8.9----30.01- 71.2 75.6----
2024-05-30 01:00 pmWNW 4.1 8.0----30.01+0.00 71.6 75.6----
2024-05-30 12:54 pm N 7.0 14.0----30.01- 69.6 75.4----
2024-05-30 12:48 pm NW 6.0 13.0----30.01- 70.7 75.4----
2024-05-30 12:42 pmNNW 5.1 12.0----30.01- 70.5 75.4----
2024-05-30 12:36 pmWNW 5.1 11.1----30.01- 70.9 75.4----
2024-05-30 12:30 pmWNW 2.9 9.9----30.01- 71.6 75.2----
2024-05-30 12:24 pmNNW 5.1 11.1----30.01- 70.7 75.2----
2024-05-30 12:18 pmWNW 1.9 8.0----30.01- 71.2 75.2----
2024-05-30 12:12 pmWNW 4.1 9.9----30.01- 71.1 75.2----
2024-05-30 12:06 pmNNW 4.1 14.0----30.01- 70.3 75.0----
2024-05-30 12:00 pmWNW 5.1 12.0----30.01-0.01 70.3 74.8----
2024-05-30 11:54 amWNW 5.1 12.0----30.01- 70.3 74.8----
2024-05-30 11:48 amNNW 5.1 14.0----30.01-- 74.8----
2024-05-30 11:42 am NW 6.0 11.1----30.01-- 74.8----
2024-05-30 11:36 amNNW 7.0 15.0----30.01-- 74.8----
2024-05-30 11:30 amNNW 6.0 12.0----30.02- 69.8 74.7----
2024-05-30 11:24 amNNW 6.0 9.9----30.02- 70.3 74.7----
2024-05-30 11:18 am NW 5.1 11.1----30.02- 70.5 74.7----
2024-05-30 11:12 am NW 2.9 15.9----30.02- 70.3 74.7----
2024-05-30 11:06 amNNW 6.0 13.0----30.02- 69.4 74.8----
2024-05-30 11:00 amNNW 5.1 13.0----30.02+0.01 69.4 74.8----
2024-05-30 10:54 am NW 4.1 11.1----30.02- 70.3 74.8----
2024-05-30 10:48 am NW 5.1 12.0----30.02- 69.8 75.0----
2024-05-30 10:42 am NW 2.9 8.9----30.02- 71.2 75.0----
2024-05-30 10:36 am NW 2.9 8.9----30.02- 70.7 75.0----
2024-05-30 10:30 am NW 4.1 8.9----30.02- 69.6 75.0----
2024-05-30 10:24 am NW 4.1 15.9----30.01- 69.1 75.0----
2024-05-30 10:18 amNNW 4.1 12.0----30.01- 69.1 75.2----
2024-05-30 10:12 am N 9.9 15.0----30.01- 68.0 75.4----
2024-05-30 10:06 amNNW 6.0 13.0----30.01- 66.9 75.4----
2024-05-30 10:00 amNNW 8.9 12.0----30.01+0.03 67.8 75.4----
2024-05-30 09:54 am N 6.0 11.1----30.01- 67.8 75.4----
2024-05-30 09:48 amNNW 6.0 12.0----30.01- 67.3 75.4----
2024-05-30 09:42 am N 5.1 12.0----30.02- 67.3 75.4----
2024-05-30 09:36 am N 5.1 13.0----30.01- 66.7 75.4----
2024-05-30 09:30 am N 5.1 9.9----30.02- 65.7 75.4----
2024-05-30 09:24 amNNW 6.0 11.1----30.02- 65.8 75.4----
2024-05-30 09:18 amNNW 8.0 13.0----30.02- 66.6 75.4----
2024-05-30 09:12 am N 7.0 13.0----30.02- 66.0 75.4----
2024-05-30 09:06 am N 5.1 14.0----30.02- 66.7 75.4----
2024-05-30 09:00 am NW 5.1 12.0----30.01- 66.9 75.4----
2024-05-30 08:54 amNNW 5.1 12.0----30.01- 65.7 75.4----
2024-05-30 08:48 am N 6.0 13.0----30.01- 65.5 75.2----
2024-05-30 08:42 amNNW 4.1 12.0----30.01- 66.6 75.2----
2024-05-30 08:36 am N 5.1 9.9----30.01- 65.7 75.2----
2024-05-30 08:30 amNNW 6.0 14.0----30.01- 65.7 75.2----
2024-05-30 08:24 am NW 4.1 12.0----30.01- 66.2 75.2----
2024-05-30 08:18 am N 6.0 11.1----30.01- 66.0 75.2----
2024-05-30 08:12 am N 7.0 12.0----30.00- 67.1 75.2----
2024-05-30 08:06 am NW 2.9 7.0----30.00- 67.8 75.2----
2024-05-30 08:00 am NW 2.9 8.0----30.00- 67.3 75.2----
2024-05-30 07:54 amNNW 4.1 11.1----30.00- 65.5 75.2----
2024-05-30 07:48 amWNW 2.9 8.0----30.00-- 75.2----
2024-05-30 07:42 am NW 2.9 8.0----30.00-- 75.2----
2024-05-30 07:36 amWNW 2.9 7.0----30.00-- 75.2----
2024-05-30 07:30 am NW 2.9 8.9----29.99- 65.8 75.2----
2024-05-30 07:24 amWNW 4.1 7.0----29.99- 65.1 75.2----
2024-05-30 07:18 am NW 2.9 8.0----29.99- 64.8 75.0----
2024-05-30 07:12 am NW 2.9 8.9----29.99- 64.8 75.0----
2024-05-30 07:06 amNNW 1.9 6.0----29.98- 64.8 74.8----
2024-05-30 07:00 am NW 1.9 8.9----29.99- 64.4 74.8----
2024-05-30 06:54 am NW 1.9 6.0----29.98- 64.0 74.7----
2024-05-30 06:48 am NW 1.9 5.1----29.98- 63.5 74.5----
2024-05-30 06:42 am NW 1.9 6.0----29.98- 63.1 74.3----
2024-05-30 06:36 amWNW 1.9 4.1----29.98- 62.8 74.3----
2024-05-30 06:30 amWNW 1.0 2.9----29.98- 62.4 74.1----
2024-05-30 06:24 amWNW 1.9 4.1----29.98- 61.7 74.1----
2024-05-30 06:18 amWNW 1.9 4.1----29.98- 61.3 74.1----
2024-05-30 06:12 amWNW 1.9 4.1----29.98- 60.8 74.1----
2024-05-30 06:06 amWNW 1.9 4.1----29.97- 60.4 74.3----
2024-05-30 06:00 amWNW 1.9 2.9----29.97+0.04 60.3 74.3----
2024-05-30 05:54 amWNW 1.9 5.1----29.97- 60.3 74.5----
2024-05-30 05:48 amWNW 1.9 4.1----29.97- 60.1 74.5----
2024-05-30 05:42 amWNW 1.9 2.9----29.96- 60.1 74.7----
2024-05-30 05:36 amWNW 1.9 5.1----29.96- 60.3 74.7----
2024-05-30 05:30 am NW 1.9 2.9----29.96- 60.1 74.8----
2024-05-30 05:24 amWNW 1.0 4.1----29.96- 60.3 75.0----
2024-05-30 05:18 am NW 1.9 5.1----29.96- 60.3 75.0----
2024-05-30 05:12 am NW 1.9 4.1----29.96- 59.7 75.0----
2024-05-30 05:06 am W 1.9 2.9----29.95- 59.5 75.0----
2024-05-30 05:00 am W 1.0 2.9----29.95+0.01 59.5 75.2----
2024-05-30 04:54 amWNW 1.0 2.9----29.94- 59.5 75.2----
2024-05-30 04:48 amWNW 1.0 5.1----29.94-- 75.2----
2024-05-30 04:42 amWNW 1.9 4.1----29.94-- 75.4----
2024-05-30 04:36 amWNW 1.0 2.9----29.94-- 75.4----
2024-05-30 04:30 amWNW 1.9 4.1----29.94- 59.5 75.4----
2024-05-30 04:24 am W 1.9 2.9----29.94- 59.7 75.4----
2024-05-30 04:18 am W 1.9 2.9----29.93- 59.7 75.4----
2024-05-30 04:12 am W 1.9 2.9----29.93- 59.5 75.4----
2024-05-30 04:06 am W 1.9 2.9----29.94- 59.5 75.6----
2024-05-30 04:00 am W 1.9 2.9----29.93-0.01 59.7 75.7----
2024-05-30 03:54 am W 1.9 1.9----29.93- 59.9 75.7----
2024-05-30 03:48 am W 1.9 1.9----29.93-- 75.9----
2024-05-30 03:42 am W 1.9 2.9----29.93-- 75.9----
2024-05-30 03:36 am W 1.9 1.9----29.93-- 75.9----
2024-05-30 03:30 am W 1.0 2.9----29.93- 59.9 75.9----
2024-05-30 03:24 am W 1.9 2.9----29.93- 59.9 75.9----
2024-05-30 03:18 am W 1.9 2.9----29.93- 59.9 75.9----
2024-05-30 03:12 am W 1.9 2.9----29.93- 59.9 75.9----
2024-05-30 03:06 am W 1.9 1.9----29.93- 60.3 75.9----
2024-05-30 03:00 am W 1.9 2.9----29.93-0.04 60.4 75.9----
2024-05-30 02:54 am W 1.0 1.9----29.93- 60.8 75.9----
2024-05-30 02:48 am W 1.9 1.9----29.93- 60.6 75.9----
2024-05-30 02:42 am- 0.0 1.9----29.92- 60.8 75.9----
2024-05-30 02:36 am- 0.0 1.9----29.92- 60.6 75.9----
2024-05-30 02:30 am- 0.0 2.9----29.93- 61.0 75.9----
2024-05-30 02:24 am W 1.9 2.9----29.93- 61.0 75.9----
2024-05-30 02:18 am W 1.9 4.1----29.93- 61.2 75.9----
2024-05-30 02:12 am W 2.9 4.1----29.93- 61.2 76.1----
2024-05-30 02:06 am W 2.9 4.1----29.93- 61.3 76.1----
2024-05-30 02:00 am W 2.9 5.1----29.93-0.03 61.3 76.1----
2024-05-30 01:54 am W 2.9 5.1----29.93- 61.3 76.1----
2024-05-30 01:48 am W 2.9 5.1----29.93-- 76.1----
2024-05-30 01:42 am W 4.1 5.1----29.93-- 76.1----
2024-05-30 01:36 am W 2.9 4.1----29.93-- 76.1----
2024-05-30 01:30 am W 2.9 4.1----29.94- 61.7 76.1----
2024-05-30 01:24 am W 2.9 4.1----29.94- 61.9 76.3----
2024-05-30 01:18 am W 2.9 4.1----29.94- 62.1 76.3----
2024-05-30 01:12 amWSW 2.9 4.1----29.95- 62.4 76.3----
2024-05-30 01:06 amWSW 2.9 5.1----29.95- 62.6 76.5----
2024-05-30 01:00 am W 2.9 4.1----29.95-0.02 62.6 76.5----
2024-05-30 12:54 am W 2.9 4.1----29.95- 63.0 76.6----
2024-05-30 12:48 am W 1.9 4.1----29.94-- 76.8----
2024-05-30 12:42 amWSW 2.9 5.1----29.95-- 77.0----
2024-05-30 12:36 am W 2.9 5.1----29.95-- 77.0----
2024-05-30 12:30 amWSW 4.1 5.1----29.96- 63.0 77.2----
2024-05-30 12:24 amWSW 4.1 5.1----29.96- 63.1 77.4----
2024-05-30 12:18 am SW 2.9 5.1----29.95- 63.1 77.4----
2024-05-30 12:12 amWSW 1.9 2.9----29.96- 63.1 77.5----
2024-05-30 12:06 amWSW 1.9 5.1----29.96- 63.1 77.5----
2024-05-30 12:00 amWSW 4.1 5.1----29.97+0.02 63.0 77.5----
2024-05-29 11:54 pmWSW 4.1 6.0----29.97- 63.0 77.7----
2024-05-29 11:48 pm W 4.1 5.1----29.96- 63.1 77.9----
2024-05-29 11:42 pm W 2.9 4.1----29.96- 63.1 77.9----
2024-05-29 11:36 pmWSW 2.9 4.1----29.96- 63.0 78.1----
2024-05-29 11:30 pm W 1.9 2.9----29.95- 63.3 78.3----
2024-05-29 11:24 pm W 1.9 2.9----29.94- 63.3 78.4----
2024-05-29 11:18 pm- 0.0 1.9----29.94- 63.1 78.4----
2024-05-29 11:12 pm SW 1.9 2.9----29.95- 63.1 78.6----
2024-05-29 11:06 pmWSW 2.9 4.1----29.96- 63.1 78.8----
2024-05-29 11:00 pm W 2.9 4.1----29.96+0.02 63.3 78.8----
2024-05-29 10:54 pm- 0.0 1.0----29.95- 63.9 79.0----
2024-05-29 10:48 pmWNW 1.0 2.9----29.96- 64.0 79.2----
2024-05-29 10:42 pmSSW 2.9 5.1----29.96- 64.6 79.3----
2024-05-29 10:36 pm S 1.9 4.1----29.96- 64.9 79.3----
2024-05-29 10:30 pm SE 2.9 4.1----29.95- 64.8 79.5----
2024-05-29 10:24 pm SE 2.9 2.9----29.95- 64.2 79.7----
2024-05-29 10:18 pm SE 1.9 4.1----29.95- 64.0 79.9----
2024-05-29 10:12 pm S 1.9 4.1----29.96- 64.4 80.1----
2024-05-29 10:06 pm- 0.0 2.9----29.96- 63.7 80.2----
2024-05-29 10:00 pm- 0.0 5.1----29.97+0.04 64.0 80.4----
2024-05-29 09:54 pmSSW 4.1 7.0----29.98- 63.9 80.4----
2024-05-29 09:48 pmSSW 2.9 6.0----29.98- 64.9 80.6----
2024-05-29 09:42 pm S 2.9 4.1----29.98- 64.6 81.0----
2024-05-29 09:36 pm S 2.9 4.1----29.98- 64.6 81.3----
2024-05-29 09:30 pmSSW 2.9 4.1----29.97- 64.6 81.5----
2024-05-29 09:24 pmENE 2.9 2.9----29.96- 64.2 81.5----
2024-05-29 09:18 pmENE 1.9 4.1----29.96- 64.8 81.5----
2024-05-29 09:12 pmENE 4.1 6.0----29.94- 64.4 81.5----
2024-05-29 09:06 pm NE 5.1 6.0----29.94- 64.2 81.5----
2024-05-29 09:00 pmNNE 1.9 2.9----29.95+0.06 64.2 81.5----
2024-05-29 08:54 pmNNE 1.9 2.9----29.95- 64.2 81.5----
2024-05-29 08:48 pm N 2.9 5.1----29.95- 64.2 81.5----
2024-05-29 08:42 pm N 1.9 6.0----29.95- 64.4 81.5----
2024-05-29 08:36 pm N 4.1 7.0----29.94- 64.2 81.5----
2024-05-29 08:30 pm N 5.1 8.0----29.94- 64.4 81.5----
2024-05-29 08:24 pm N 5.1 8.9----29.94- 64.4 81.5----
2024-05-29 08:18 pm N 4.1 6.0----29.94- 64.6 81.5----
2024-05-29 08:12 pm N 4.1 8.0----29.94- 64.6 81.7----
2024-05-29 08:06 pmNNE 5.1 8.9----29.93- 64.4 81.7----
2024-05-29 08:00 pmNNW 6.0 9.9----29.94+0.04 64.4 81.7----
2024-05-29 07:54 pm N 5.1 8.9----29.93- 64.4 81.7----
2024-05-29 07:48 pm N 6.0 11.1----29.93-- 81.9----
2024-05-29 07:42 pm N 6.0 9.9----29.93-- 81.9----
2024-05-29 07:36 pmNNW 7.0 13.0----29.93-- 81.9----
2024-05-29 07:30 pmNNW 7.0 14.0----29.93- 64.9 81.9----
2024-05-29 07:24 pmNNW 4.1 12.0----29.93- 65.5 81.9----
2024-05-29 07:18 pmNNW 6.0 15.9----29.94- 66.2 81.9----
2024-05-29 07:12 pm NW 5.1 13.0----29.93- 67.5 81.9----
2024-05-29 07:06 pmNNW 5.1 13.0----29.92- 68.4 81.9----
2024-05-29 07:00 pm NW 4.1 18.1----29.92+0.01 69.3 82.0----
2024-05-29 06:54 pm SW 9.9 12.0----29.91- 71.8 82.0----